Estación meteorológica de Calldetenes (Osona, Plana de Vic)

Consulta los datos en tiempo real de la estación meteorológica de Calldetenes





Hora UTC 11:55
Temperatura 29.7 ºC
Suelo 15 cm 35.0 ºC
Humedad 44.4 %
Presión 1020.9 hPa
Pluja 0.0 mm
Velocidad viento 20.0 km/h
Dirección viento SSW
Radiación solar 779.1 W/m²

Webcam

Datos diarios 2026-09-01



Hora UTC (invierno +1h; verano +2h)
Temperatura (ºC) Humedad (%) Presión (hPa) Velocidad viento (km/h) Precipitación (mm) Radiación solar (W/m²)
Hora UTC Aire Suelo 15 cm Humedad Presión Vel. Dir. Vel. Max Dir. Intent. máx 5 min. Rad. Sol.
00:05 20.0 20.0 83.2 1022.3 0.5 S 0.5 S 0.0 0.1
00:10 19.8 19.8 84.2 1022.3 1.9 SSE 3.5 SSE 0.0 0.1
00:15 19.5 19.6 85.0 1022.3 2.0 ESE 6.7 SE 0.0 0.1
00:20 19.2 19.4 86.0 1022.3 5.1 ESE 7.4 ESE 0.0 0.1
00:25 19.1 19.3 87.3 1022.3 4.3 SE 6.4 SE 0.0 0.1
00:30 19.1 19.2 88.2 1022.3 2.0 ESE 4.2 ESE 0.0 0.1
00:35 19.2 19.3 88.3 1022.2 2.8 E 4.2 ESE 0.0 0.1
00:40 19.4 19.4 88.7 1022.2 2.3 ESE 4.2 ESE 0.0 0.1
00:45 19.7 19.7 88.3 1022.2 2.8 ESE 4.6 E 0.0 0.1
00:50 19.8 19.9 87.3 1022.2 2.5 ESE 3.9 ESE 0.0 0.1
00:55 19.9 20.1 87.2 1022.2 2.7 ESE 4.6 ESE 0.0 0.1
01:00 20.1 20.3 86.7 1022.2 3.0 SE 4.9 SSE 0.0 0.1
01:05 20.2 20.4 86.9 1022.2 2.7 S 5.6 S 0.0 0.1
01:10 20.7 20.6 86.8 1022.2 3.4 SSW 5.3 S 0.0 0.1
01:15 21.1 20.9 84.7 1022.1 2.7 S 5.3 S 0.0 0.1
01:20 21.1 21.1 83.7 1022.1 0.0 NNE 0.0 SSW 0.0 0.1
01:25 21.0 21.2 83.8 1022.1 0.8 W 2.8 WNW 0.0 0.1
01:30 21.0 21.1 84.3 1022.1 1.3 WSW 4.2 WSW 0.0 0.1
01:35 21.1 21.2 84.5 1022.1 2.8 WSW 4.6 WSW 0.0 0.1
01:40 21.2 21.2 84.2 1022.1 2.3 WSW 3.9 WSW 0.0 0.1
01:45 21.2 21.3 83.8 1022.1 2.3 SW 3.9 SW 0.0 0.1
01:50 21.3 21.4 83.5 1022.1 2.8 SW 4.2 SW 0.0 0.1
01:55 21.3 21.4 83.1 1022.1 2.7 SW 6.7 S 0.0 0.1
02:00 21.5 21.5 82.8 1022.1 3.0 SW 6.0 SSW 0.0 0.1
02:05 21.6 21.6 82.2 1022.1 4.1 SW 7.1 SW 0.0 0.1
02:10 21.6 21.6 82.4 1022.1 3.3 SSW 6.4 SW 0.0 0.1
02:15 21.7 21.7 82.3 1022.1 3.7 SW 5.6 SSW 0.0 0.1
02:20 21.7 21.7 82.4 1022.1 3.1 SW 6.4 WSW 0.0 0.1
02:25 21.7 21.7 82.3 1022.0 3.8 SW 6.0 SW 0.0 0.1
02:30 21.6 21.7 82.5 1022.0 2.9 SSW 5.3 SSW 0.0 0.1
02:35 21.7 21.7 82.5 1021.9 3.1 SSW 5.3 SSW 0.0 0.1
02:40 21.7 21.7 82.4 1021.9 3.2 SSW 6.7 SSW 0.0 0.1
02:45 21.7 21.6 82.3 1021.8 2.6 WSW 4.9 WSW 0.0 0.1
02:50 21.6 21.6 82.7 1021.8 3.8 SW 6.4 SW 0.0 0.1
02:55 21.6 21.6 82.9 1021.7 3.7 SW 6.7 SSW 0.0 0.1
03:00 21.6 21.6 82.9 1021.7 4.3 WSW 6.7 SW 0.0 0.1
03:05 21.6 21.6 83.1 1021.7 2.0 SW 4.6 WSW 0.0 0.1
03:10 21.6 21.7 82.9 1021.7 1.4 SW 3.5 W 0.0 0.1
03:15 21.6 21.6 82.9 1021.7 3.3 SW 7.4 SW 0.0 0.1
03:20 21.6 21.6 83.4 1021.7 1.9 WSW 4.9 SW 0.0 0.1
03:25 21.6 21.7 83.2 1021.5 3.0 WSW 6.4 WSW 0.0 0.1
03:30 21.6 21.7 83.4 1021.5 2.8 WSW 5.3 SSW 0.0 0.1
03:35 21.6 21.7 83.3 1021.5 1.9 WSW 4.9 WSW 0.0 0.1
03:40 21.6 21.7 83.4 1021.5 3.0 WNW 5.6 WNW 0.0 0.1
03:45 21.6 21.6 83.6 1021.4 2.4 W 4.2 W 0.0 0.1
03:50 21.5 21.5 83.7 1021.4 2.2 W 7.1 W 0.0 0.1
03:55 21.5 21.4 83.7 1021.4 5.0 WNW 6.7 W 0.0 0.1
04:00 21.3 21.2 82.3 1021.4 3.5 NW 5.3 NW 0.0 0.1
04:05 21.2 21.1 82.6 1021.3 2.1 NNW 4.9 NNW 0.0 0.1
04:10 21.0 20.9 83.0 1021.3 3.8 NW 6.0 NW 0.0 0.1
04:15 20.9 20.7 83.7 1021.3 1.5 NW 3.5 NW 0.0 0.1
04:20 20.9 20.6 84.1 1021.3 0.1 NNW 1.1 NNW 0.0 0.1
04:25 20.8 20.5 84.3 1021.3 0.0 NNE 0.0 NNW 0.0 0.1
04:30 20.8 20.5 84.4 1021.3 0.0 NNE 0.0 NNW 0.0 0.1
04:35 20.5 20.5 85.1 1021.2 0.0 NNE 0.0 NNW 0.0 0.1
04:40 20.3 20.4 86.5 1021.2 0.0 NNW 1.1 NNW 0.0 0.1
04:45 20.4 20.3 86.9 1021.2 0.7 NW 1.8 NNW 0.0 0.1
04:50 20.4 20.2 86.1 1021.2 0.0 NNE 0.0 SSE 0.0 0.1
04:55 20.3 20.1 86.7 1021.2 0.2 SSE 1.8 SSE 0.0 0.2
05:00 20.2 20.1 87.2 1021.2 1.8 S 3.2 SSE 0.0 0.3
05:05 20.3 20.1 88.0 1021.2 3.3 S 4.2 S 0.0 0.5
05:10 20.5 20.2 87.3 1021.2 1.8 S 4.2 SSW 0.0 1.0
05:15 20.3 20.2 86.8 1021.2 1.8 S 3.5 SSE 0.0 1.7
05:20 20.2 20.1 87.8 1021.2 2.5 S 4.2 S 0.0 2.7
05:25 20.2 20.0 88.0 1021.3 1.8 S 4.2 SW 0.0 4.5
05:30 20.4 20.1 86.6 1021.3 3.7 SSW 6.4 SSW 0.0 7.0
05:35 20.6 20.2 85.0 1021.3 3.4 S 6.0 S 0.0 10.8
05:40 20.7 20.4 84.4 1021.3 3.4 S 5.3 S 0.0 14.3
05:45 20.8 20.5 84.5 1021.4 2.0 SSW 4.6 S 0.0 18.3
05:50 20.7 20.6 85.0 1021.4 0.5 W 2.5 W 0.0 23.5
05:55 20.6 20.4 85.5 1021.5 0.9 SSW 3.2 S 0.0 28.4
06:00 20.5 20.3 86.2 1021.5 0.5 W 2.1 W 0.0 30.7
06:05 20.4 20.1 87.3 1021.5 0.3 S 1.8 SSW 0.0 32.3
06:10 20.4 19.9 89.7 1021.5 0.5 ESE 1.8 E 0.0 36.8
06:15 20.3 19.7 89.7 1021.5 0.8 S 2.1 S 0.0 40.5
06:20 20.4 19.5 88.2 1021.5 3.2 SW 4.6 SW 0.0 43.2
06:25 20.4 19.5 87.7 1021.5 3.0 SSW 4.6 SSW 0.0 53.7
06:30 20.5 19.4 87.2 1021.5 3.1 SW 5.3 SSW 0.0 94.6
06:35 20.5 19.4 87.2 1021.5 3.2 SW 4.9 WSW 0.0 123.8
06:40 20.6 19.4 86.9 1021.5 2.4 SSW 3.9 SSW 0.0 133.5
06:45 20.6 19.4 86.6 1021.6 1.7 S 3.9 S 0.0 149.9
06:50 20.7 19.5 86.4 1021.6 1.1 SW 2.8 WSW 0.0 165.6
06:55 20.8 19.6 86.2 1021.6 1.1 SSE 2.8 SSE 0.0 176.0
07:00 21.0 19.7 85.0 1021.6 1.1 SSE 3.2 SSE 0.0 191.7
07:05 21.1 19.8 84.8 1021.7 0.6 SE 2.1 SE 0.0 204.1
07:10 21.1 19.8 84.6 1021.7 0.2 WNW 2.1 ESE 0.0 223.1
07:15 21.2 19.8 85.2 1021.7 2.2 ENE 5.3 ENE 0.0 237.0
07:20 21.3 19.9 85.2 1021.7 1.4 ENE 4.2 NE 0.0 254.2
07:25 21.4 20.0 84.1 1021.7 1.7 ESE 4.6 E 0.0 268.5
07:30 21.5 20.1 83.1 1021.7 2.1 ESE 6.0 S 0.0 281.8
07:35 21.8 20.2 80.4 1021.8 2.1 SSE 4.9 SSE 0.0 298.1
07:40 22.0 20.3 78.8 1021.8 2.2 S 4.2 SSE 0.0 313.5
07:45 22.1 20.4 76.7 1021.8 2.8 ENE 5.3 NE 0.0 329.8
07:50 22.2 20.5 78.3 1021.8 6.1 NE 9.5 NNE 0.0 342.0
07:55 22.4 20.5 76.6 1021.6 5.6 NNE 7.8 NNE 0.0 358.4
08:00 22.4 20.5 75.9 1021.6 2.9 ENE 4.9 NE 0.0 375.5
08:05 22.5 20.6 75.7 1021.6 1.9 SE 5.3 S 0.0 393.3
08:10 22.7 20.7 74.4 1021.6 2.5 ESE 4.9 NE 0.0 404.3
08:15 22.8 20.8 74.8 1021.5 4.1 NNE 7.4 NNE 0.0 415.8
08:20 22.8 20.9 74.2 1021.5 1.8 NNE 5.6 NE 0.0 429.3
08:25 23.0 21.0 74.1 1021.5 4.6 NNE 9.5 NNE 0.0 445.8
08:30 23.2 21.1 73.0 1021.5 5.5 NE 9.5 E 0.0 461.7
08:35 23.3 21.2 72.5 1021.6 2.8 ENE 8.1 ENE 0.0 471.6
08:40 23.4 21.4 71.8 1021.6 2.5 NE 7.4 ENE 0.0 489.8
08:45 23.6 21.5 70.9 1021.5 3.8 ESE 7.8 ESE 0.0 509.2
08:50 23.7 21.7 70.8 1021.5 5.6 N 11.6 NE 0.0 524.7
08:55 23.7 21.7 71.2 1021.5 2.9 NNE 8.8 ENE 0.0 514.2
09:00 23.8 21.8 70.2 1021.5 5.2 NNE 10.6 N 0.0 480.3
09:05 23.9 21.9 69.8 1021.5 4.6 NNE 9.5 N 0.0 553.4
09:10 23.9 21.9 68.4 1021.5 6.7 NNE 9.5 N 0.0 563.2
09:15 24.0 22.0 67.2 1021.5 4.7 NE 8.1 NNE 0.0 567.5
09:20 24.0 22.1 67.2 1021.5 2.4 NE 8.8 NE 0.0 580.9
09:25 24.1 22.1 66.4 1021.5 1.8 NE 4.2 NE 0.0 596.9
09:30 24.3 22.2 65.9 1021.5 2.8 NNW 5.6 W 0.0 608.1
09:35 24.8 22.4 63.7 1021.5 1.9 N 7.1 E 0.0 617.1
09:40 25.4 22.6 62.2 1021.5 4.3 ENE 9.5 E 0.0 632.2
09:45 26.0 23.0 60.3 1021.4 2.9 NE 9.2 NNE 0.0 641.2
09:50 26.0 23.7 59.6 1021.4 2.4 NNW 9.5 NE 0.0 652.5
09:55 26.6 24.4 58.8 1021.3 3.8 E 8.8 NE 0.0 662.5
10:00 27.0 25.1 55.8 1021.3 6.5 SSW 12.7 SSW 0.0 670.4
10:05 27.2 25.9 54.4 1021.3 7.6 SSW 13.8 S 0.0 677.7
10:10 27.3 26.6 53.6 1021.3 7.3 S 15.2 S 0.0 687.1
10:15 27.3 27.2 53.3 1021.3 9.2 S 17.6 SSE 0.0 696.3
10:20 27.8 27.8 51.9 1021.3 5.5 SSW 11.3 SW 0.0 706.4
10:25 28.4 28.4 49.1 1021.3 9.8 S 18.7 S 0.0 711.9
10:30 28.6 29.0 48.6 1021.3 9.6 SW 19.4 SSW 0.0 719.1
10:35 29.2 29.6 48.4 1021.1 5.4 SSE 15.9 SW 0.0 724.3
10:40 29.6 30.0 46.5 1021.1 15.1 SSW 26.1 SSW 0.0 731.8
10:45 29.3 30.4 48.3 1021.0 18.1 SSW 33.5 SW 0.0 734.4
10:50 29.2 30.6 47.9 1021.0 19.0 SSW 28.6 SSW 0.0 734.1
10:55 29.2 30.8 48.2 1021.1 20.5 S 33.9 S 0.0 738.6
11:00 29.0 31.2 48.0 1021.1 19.8 S 32.8 S 0.0 749.2
11:05 29.2 31.7 48.0 1021.1 19.9 S 32.8 S 0.0 755.4
11:10 29.3 32.4 47.5 1021.1 21.3 S 35.6 SSW 0.0 758.4
11:15 29.4 32.8 47.0 1021.1 16.1 S 32.8 S 0.0 762.0
11:20 29.6 33.4 46.2 1021.1 16.5 S 29.3 SSW 0.0 764.8
11:25 29.6 33.8 46.1 1021.0 17.0 S 25.4 S 0.0 763.6
11:30 29.5 34.1 46.6 1021.0 16.2 SSW 28.2 SSW 0.0 766.4
11:35 29.6 34.4 46.1 1021.0 18.7 S 32.1 SSW 0.0 773.2
11:40 29.6 34.5 45.9 1021.0 17.2 S 31.8 SSW 0.0 776.9
11:45 29.6 34.5 45.7 1021.0 18.4 S 31.1 SSW 0.0 778.4
11:50 29.8 34.8 44.8 1021.0 15.3 S 27.9 S 0.0 779.8
11:55 29.7 35.0 44.4 1020.9 20.0 SSW 32.1 S 0.0 779.1
Máxima 29.8 35.0 89.7 1022.3 21.3 S 35.6 SSW 0.0 779.8
Mínima 19.1 19.2 44.4 1020.9
Total 0.0